User: anonymous   Login
Location: ????????
(55.6189°N, 38.3031°E)
Time: 10:29:02
(UTC+00:00)
Language:

Cosmos 1151 Rocket - Orbit

View from above orbital plane
View from above orbital plane
View from above satellite
View from above satellite

Ground track
Ground track

The orbit data is extracted from the following two-line orbital elements,

1 11672U 80005B   20022.60194054 +.00000079 +00000-0 +59122-5 0  9995
2 11672 082.5148 263.1678 0017886 048.6243 311.6509 14.87983246143462
Epoch (UTC): 22 January 2020 14:26:47
Eccentricity: 0.0017886
inclination: 82.5148°
perigee height: 592 km
apogee height: 617 km
right ascension of ascending node: 263.1678°
argument of perigee: 48.6243°
revolutions per day: 14.87983246
mean anomaly at epoch: 311.6509°
orbit number at epoch: 14346

The dashed part of the orbit path shows where the satellite is in the earth's shadow,  

DLR